NOAA 16 DEB, 41243

Orbit data source: Space-Track

NOAA 16 DEB, 41243 is space debris in SSO originally from a launch on Thu, 21 Sep 2000 UTC launched from the Air Force Western Test Range (AFWTR). Debris objects in space refer to the collection of defunct objects orbiting the Earth. Examples of debris include non-operational satellites, rocket bodies, and fragments generated from explosions, collisions, or faulty payload assembly.

Loading next visibility...
Identifier
41243, 2000-055ET
Orbit
SSO
Country
Flag of USUS
Related business
Manufacturer
Unknown
Mission
Spacecraft
Bus & Motor
Unknown
Mass
Unknown
Launch date (UTC)
2000-09-21 (26 years ago)
Launch vehicle
Unknown
Launch site
Air Force Western Test Range (AFWTR)
Object type
Payload
Rocket body
Debris
Shape & HBR
Unknown shape, 0.1 m
Radar Cross Section
Small (<0.1 m²)

Expand to show TLE details & history
Last TLE update: 9 hours ago

TLE from 9 hours ago
0 NOAA 16 DEB
1 41243U 00055ET  26126.47742690  .00003032  00000-0  12346-2 0  9996
2 41243  98.7242 210.0723 0005892 157.9330 202.2106 14.28214840534194
Epoch: 2026-05-06T11:27Z
TLE epoch observation values (Epoch: 2026-05-06T11:27:29.684Z)
Latitude
0.00003°
Longitude
173.86126°
Altitude
804.545 km
Speed
7.449 km/s
True Right ascension
14h 00m 17s
True Declination
0° 00' 00"
Sunlit
Object was in full shadow at epoch
Visualization orbit readout
Latitude
Unknown
Longitude
Unknown
Altitude
Unknown
Speed
Unknown
Apparent Right ascension
Unknown
Apparent Declination
Unknown
Sunlit
N/A
Visualization observer readout
Local Sidereal Time
04:37:00
Azimuth
Unknown
Elevation
Unknown
Doppler factor
Unknown
Orbital elements
Apogee altitude
799.079 km
Perigee altitude
790.626 km
Semi-major axis
7,172.989 km
Eccentricity
0.00059
Inclination
98.7242°
RAAN
210.0723°
Arg. of periapsis
157.933°
True anomaly
202.1851°
Mean anomaly
202.2106°
Eccentric anomaly
202.19785°
Mean motion
3.57267 °/min
Orbital period
100.76 mins
BSTAR
0.0012346
Loading maneuver chart data...
Computing Atmospheric mass density...
Loading historical data...
Loading historical data...
Loading historical data...
Loading historical data...
Loading historical data...
Loading historical data...
Loading historical data...

Documentation

Showing up to 5 results
|